Terminal Aerodrome Forecast
Issued by NWS Columbia, SC

Home | Current Version | Previous Version | Text Only | Print | Product List | Glossary On
Versions: 1 2 3 4 5 6 7 8 9 10 11 12 13 14 15 16 17 18 19 20 21 22 23 24 25 26 27 28 29 30 31 32 33 34 35 36 37 38 39 40 41 42 43
000
FTUS42 KCAE 301100
TAFAGS
TAF
KAGS 301138Z 3012/0112 VRB03KT P6SM SCT004 BKN035
      TEMPO 3012/3013 BKN004
     FM301600 03006KT P6SM SCT040
     FM010300 VRB03KT 4SM BR SKC
     FM010800 00000KT 1SM BR SCT005=

USA.gov is the U.S. government's official web portal to all federal, state and local government web resources and services.